Location: Emblem
(62.4273°N, 6.4710°E)
Time: 08:05:00
(UTC+01:00)

Envisat - Visible Passes

Search period start: 06 December 2022 00:00
Search period end: 16 December 2022 00:00
Orbit: 763 x 765 km, 98.2° (Epoch: 05 December)

Date Brightness Start Highest point End Pass type
(mag) Time Alt. Az. Time Alt. Az. Time Alt. Az.
06 Dec 5.4 03:26:54 10° NE 03:30:24 18° E 03:30:38 18° E visible
06 Dec 3.2 05:05:16 10° NNE 05:10:22 69° ESE 05:10:48 65° SE visible
06 Dec 3.5 06:44:33 10° N 06:49:10 35° NW 06:50:58 27° W visible
06 Dec 4.6 08:24:14 10° N 08:26:59 15° NNW 08:29:44 10° WNW visible
06 Dec 4.8 16:31:35 10° SSW 16:36:13 34° W 16:40:53 10° NNW visible
07 Dec 5.9 02:51:34 10° ENE 02:52:42 11° ENE 02:53:03 11° ENE visible
07 Dec 4.1 04:28:20 10° NNE 04:33:10 41° E 04:33:13 41° E visible
07 Dec 3.0 06:07:24 10° NNE 06:12:23 54° WNW 06:13:24 46° WSW visible
07 Dec 4.3 07:46:57 10° N 07:50:33 20° NW 07:53:34 12° W visible
07 Dec 5.8 17:36:11 10° WSW 17:39:06 15° W 17:42:02 10° NW visible
08 Dec 4.9 03:51:35 10° NNE 03:55:39 25° E 03:55:39 25° E visible
08 Dec 2.8 05:30:19 10° NNE 05:35:27 86° WNW 05:35:49 77° SW visible
08 Dec 3.9 07:09:44 10° N 07:13:58 27° NW 07:16:00 21° W visible
08 Dec 5.3 16:57:24 10° SW 17:01:33 25° W 17:05:43 10° NNW visible
09 Dec 5.6 03:15:14 10° NE 03:18:06 15° ENE 03:18:06 15° ENE visible
09 Dec 3.5 04:53:18 10° NNE 04:58:16 58° E 04:58:16 58° E visible
09 Dec 3.4 06:32:33 10° NNE 06:37:17 40° NW 06:38:26 35° W visible
09 Dec 4.5 08:12:11 10° N 08:15:13 16° NNW 08:18:14 10° WNW visible
09 Dec 4.5 16:19:22 10° SSW 16:24:09 40° W 16:28:59 10° NNW visible
09 Dec 6.2 18:03:49 10° W 18:04:39 10° WNW 18:05:28 10° WNW visible
10 Dec 4.4 04:16:25 10° NNE 04:20:43 35° E 04:20:43 35° E visible
10 Dec 2.9 05:55:25 10° NNE 06:00:27 63° WNW 06:00:53 60° W visible
10 Dec 4.2 07:34:55 10° N 07:38:44 22° NW 07:41:04 16° WNW visible
10 Dec 5.7 17:23:32 10° SW 17:26:57 18° W 17:30:22 10° NW visible
11 Dec 5.2 03:39:45 10° NE 03:43:10 21° ENE 03:43:10 21° ENE visible
11 Dec 3.0 05:18:20 10° NNE 05:23:21 81° E 05:23:21 81° E visible
11 Dec 3.7 06:57:42 10° N 07:02:08 31° NW 07:03:31 27° WNW visible
11 Dec 4.7 08:37:26 10° N 08:39:50 13° NNW 08:42:13 10° NW visible
11 Dec 5.1 16:45:02 10° SSW 16:49:26 29° W 16:53:52 10° NNW visible
12 Dec 5.8 03:03:41 10° NE 03:05:37 13° ENE 03:05:37 13° ENE visible
12 Dec 3.8 04:41:21 10° NNE 04:45:49 48° E 04:45:49 48° E visible
12 Dec 3.2 06:20:32 10° NNE 06:25:24 46° WNW 06:25:58 44° WNW visible
12 Dec 4.4 08:00:08 10° N 08:03:25 18° NW 08:06:09 12° WNW visible
12 Dec 4.2 16:07:12 10° S 16:12:07 47° W 16:17:03 10° NNW visible
12 Dec 5.9 17:50:19 10° W 17:52:26 12° WNW 17:54:33 10° NW visible
13 Dec 4.7 04:04:31 10° NNE 04:08:16 29° ENE 04:08:16 29° ENE visible
13 Dec 2.8 05:43:25 10° NNE 05:48:27 73° WNW 05:48:27 73° WNW visible
13 Dec 4.1 07:22:52 10° N 07:26:54 24° NW 07:28:37 20° WNW visible
13 Dec 5.6 17:11:01 10° SW 17:14:48 21° W 17:18:36 10° NW visible
14 Dec 5.4 03:27:59 10° NE 03:30:45 18° ENE 03:30:45 18° ENE visible
14 Dec 3.3 05:06:22 10° NNE 05:10:55 64° ENE 05:10:55 64° ENE visible
14 Dec 3.6 06:45:41 10° N 06:50:15 35° NW 06:51:06 32° WNW visible
14 Dec 4.6 08:25:22 10° N 08:28:03 15° NNW 08:30:45 10° WNW visible
14 Dec 4.8 16:32:45 10° SSW 16:37:21 34° W 16:41:59 10° NNW visible
15 Dec 6.0 02:52:27 10° ENE 02:53:13 11° ENE 02:53:13 11° ENE visible
15 Dec 4.2 04:29:25 10° NNE 04:33:23 39° ENE 04:33:23 39° ENE visible
15 Dec 3.0 06:08:31 10° NNE 06:13:29 53° WNW 06:13:34 53° WNW visible
15 Dec 4.3 07:48:04 10° N 07:51:37 19° NW 07:53:45 15° WNW visible
15 Dec 5.8 17:37:27 10° WSW 17:40:15 15° W 17:43:04 10° NW visible
